Terug naar catalogus

STARLINK-35914

ActiefCommunicatieVLEO
NORAD 66532·PAYLOAD·🇺🇸 United States

Gelanceerd Nov 19, 2025 vanaf Cape Canaveral Space Force Station

Loading…

Volgende Passages (komende 24 uur)

TLE

VersSource: CelesTrak SupGP

Epoch: Sep 15, 2026, 02:33 UTC

1 66532C 25265S   26258.10673611  .00015234  00000+0  55172-3 0  2585
2 66532  43.0010 288.3715 0001300 260.5100 344.2125 15.27574474    12

Volg STARLINK-35914 in realtime met AllMySat

Download on the App Store